Location: Maccacari
(45.1333°N, 11.1333°E)
Time: 01:48:15
(UTC+00:00)

A-11 Canister half - Pass Details

Date: 30 January 2021
Orbit: 1525 x 1684 km, 47.3° (Epoch: 07 March)

Event Time Altitude Azimuth Distance (km) Brightness Sun altitude
Rises 14:21:15 0° 263° (W) 4,674 12.3 16.2°
Reaches altitude 10° 14:24:17 10° 265° (W) 3,699 11.9 15.8°
Maximum altitude 14:33:39 80° 353° (N) 1,576 9.3 14.6°
Drops below altitude 10° 14:43:18 10° 81° (E) 3,799 10.6 13.4°
Sets 14:46:27 0° 83° (E) 4,806 11.1 13.0°
